User: anonymous   Login
Location: Muenchen
(48.1800°N, 11.5800°E)
Time: 03:26:28
(UTC+02:00)
Language:

Iridium 37 - Orbit

View from above orbital plane
View from above orbital plane
View from above satellite
View from above satellite

Ground track
Ground track

The orbit data is extracted from the following two-line orbital elements,

1 24968U 97056D   16145.42933397  .00000009  00000-0 -40066-5 0  9994
2 24968  86.3951 121.4081 0002248  85.5710 274.5743 14.34215078976810
Epoch (UTC): 24 May 2016 10:18:14
Eccentricity: 0.0002248
inclination: 86.3951°
perigee height: 776 km
apogee height: 779 km
right ascension of ascending node: 121.4081°
argument of perigee: 85.5710°
revolutions per day: 14.34215078
mean anomaly at epoch: 274.5743°
orbit number at epoch: 97681

The dashed part of the orbit path shows where the satellite is in the earth's shadow,  

DLR